CFG2302 EDDF-FSIA

Flight info

Callsign CFG2302
Flight time N/A
Altitude 35000
Route CINDY8S/18 CINDY Z74 LAMPU DCT NOMBO Y161 MAH DCT VAVOR DCT RADIZ DCT NEMEK DCT VRANA DCT PETAK DCT DIMIS UL604 DILMO/N0462F370 UL604 SALUN N705 MMA L613 KIVIL N710 TAKRI P751 PSD N720 FEREB UV790 SB R775 MANDA UR775 APKIX/N0468F390 UR775 HARGA/N0468F380 UM651 MURAL/N0466F390 G651 KUSUB UM651 ANVIX T120 NEVIN NEVIN1E
Aircraft A339/H-SADE1E2E3GHIJ3J5M1P2RWXY/LB2D1

Departure

Time 2026-04-14 15:43
Airport Frankfurt Main Airport (EDDF)

Arrival

Time N/A
Airport Seychelles International Airport (FSIA)
Time Latitude Longitude Altitude Speed Heading
2026-04-14 15:14 50.04600 8.57067 363 ft 0 kts 59°
2026-04-14 15:15 50.04653 8.57049 365 ft 0 kts 91°
2026-04-14 15:16 50.04653 8.57048 365 ft 0 kts 91°
2026-04-14 15:28 50.04653 8.57037 367 ft 2 kts 91°
2026-04-14 15:28 50.04654 8.57006 365 ft 3 kts 91°
2026-04-14 15:29 50.04654 8.56975 365 ft 3 kts 93°
2026-04-14 15:29 50.04654 8.56947 367 ft 3 kts 114°
2026-04-14 15:29 50.04651 8.56932 362 ft 3 kts 159°
2026-04-14 15:29 50.04637 8.56924 367 ft 3 kts 192°
2026-04-14 15:30 50.04632 8.56922 366 ft 0 kts 195°
2026-04-14 15:32 50.04633 8.56922 366 ft 0 kts 195°
2026-04-14 15:33 50.04627 8.56920 363 ft 4 kts 195°
2026-04-14 15:34 50.04589 8.56904 368 ft 8 kts 193°
2026-04-14 15:34 50.04548 8.56890 367 ft 4 kts 194°
2026-04-14 15:34 50.04504 8.56873 365 ft 11 kts 194°
2026-04-14 15:34 50.04425 8.56847 365 ft 12 kts 187°
2026-04-14 15:35 50.04345 8.56827 366 ft 12 kts 190°
2026-04-14 15:35 50.04261 8.56789 369 ft 15 kts 211°
2026-04-14 15:35 50.04218 8.56651 368 ft 15 kts 247°
2026-04-14 15:35 50.04178 8.56494 365 ft 16 kts 250°
2026-04-14 15:36 50.04135 8.56313 360 ft 20 kts 250°
2026-04-14 15:36 50.04084 8.56099 362 ft 22 kts 250°
2026-04-14 15:36 50.04030 8.55873 360 ft 24 kts 249°
2026-04-14 15:36 50.03965 8.55599 363 ft 28 kts 250°
2026-04-14 15:37 50.03898 8.55319 359 ft 27 kts 250°
2026-04-14 15:37 50.03833 8.55049 361 ft 26 kts 250°
2026-04-14 15:37 50.03769 8.54785 354 ft 26 kts 250°
2026-04-14 15:37 50.03708 8.54523 356 ft 26 kts 250°
2026-04-14 15:38 50.03645 8.54258 355 ft 26 kts 249°
2026-04-14 15:38 50.03594 8.54049 352 ft 24 kts 249°
2026-04-14 15:38 50.03535 8.53803 350 ft 25 kts 250°
2026-04-14 15:38 50.03476 8.53555 355 ft 17 kts 250°
2026-04-14 15:39 50.03489 8.53495 352 ft 7 kts 309°
2026-04-14 15:39 50.03531 8.53494 354 ft 5 kts 19°
2026-04-14 15:39 50.03575 8.53511 353 ft 10 kts 359°
2026-04-14 15:39 50.03599 8.53400 351 ft 13 kts 257°
2026-04-14 15:40 50.03568 8.53267 354 ft 14 kts 249°
2026-04-14 15:40 50.03525 8.53087 350 ft 21 kts 250°
2026-04-14 15:40 50.03467 8.52857 351 ft 23 kts 247°
2026-04-14 15:40 50.03424 8.52697 350 ft 8 kts 248°
2026-04-14 15:41 50.03397 8.52624 352 ft 8 kts 226°
2026-04-14 15:41 50.03349 8.52596 347 ft 6 kts 179°
2026-04-14 15:41 50.03336 8.52596 339 ft 0 kts 181°
2026-04-14 15:41 50.03333 8.52596 340 ft 3 kts 181°
2026-04-14 15:42 50.03111 8.52597 341 ft 68 kts 179°
2026-04-14 15:42 50.02387 8.52604 341 ft 137 kts 180°
2026-04-14 15:42 50.01246 8.52618 370 ft 186 kts 179°
2026-04-14 15:42 49.99936 8.52618 926 ft 191 kts 180°
2026-04-14 15:43 49.98575 8.52585 1519 ft 200 kts 181°
2026-04-14 15:43 49.97165 8.52559 2133 ft 205 kts 173°
2026-04-14 15:43 49.95799 8.53342 2457 ft 219 kts 141°
2026-04-14 15:43 49.94795 8.55143 2834 ft 228 kts 120°
2026-04-14 15:44 49.93967 8.57323 3257 ft 236 kts 108°
2026-04-14 15:44 49.93722 8.58934 3813 ft 228 kts 93°
2026-04-14 15:44 49.93698 8.61233 4455 ft 228 kts 83°
2026-04-14 15:44 49.93857 8.63681 5032 ft 233 kts 82°
2026-04-14 15:45 49.93913 8.66303 5240 ft 253 kts 88°
2026-04-14 15:45 49.93623 8.69071 5537 ft 267 kts 110°
2026-04-14 15:45 49.92574 8.71468 6116 ft 274 kts 134°
2026-04-14 15:45 49.91039 8.73245 6668 ft 278 kts 145°
2026-04-14 15:46 49.89399 8.74862 7215 ft 279 kts 142°
2026-04-14 15:46 49.88008 8.76944 7763 ft 280 kts 125°
2026-04-14 15:46 49.86979 8.79519 8255 ft 283 kts 118°
2026-04-14 15:46 49.86025 8.82193 8798 ft 285 kts 118°
2026-04-14 15:47 49.85065 8.84884 9440 ft 285 kts 119°
2026-04-14 15:47 49.84095 8.87584 9961 ft 289 kts 120°
2026-04-14 15:47 49.83104 8.90318 10422 ft 295 kts 120°
2026-04-14 15:47 49.82066 8.93167 10562 ft 312 kts 121°
2026-04-14 15:48 49.80975 8.96158 10705 ft 327 kts 120°
2026-04-14 15:48 49.79832 8.99296 10888 ft 340 kts 121°
2026-04-14 15:48 49.78665 9.02499 11396 ft 343 kts 120°
2026-04-14 15:48 49.77485 9.05733 11860 ft 346 kts 120°
2026-04-14 15:49 49.76386 9.09068 12316 ft 351 kts 113°
2026-04-14 15:49 49.75619 9.12678 12782 ft 355 kts 104°
2026-04-14 15:49 49.74993 9.16398 13165 ft 360 kts 110°
2026-04-14 15:49 49.73920 9.19874 13698 ft 360 kts 122°
2026-04-14 15:50 49.72400 9.22936 14201 ft 360 kts 133°
2026-04-14 15:50 49.70720 9.25835 14596 ft 363 kts 133°
2026-04-14 15:50 49.69041 9.28770 15008 ft 365 kts 132°
2026-04-14 15:50 49.67369 9.31715 15420 ft 366 kts 132°
2026-04-14 15:51 49.65708 9.34649 15844 ft 368 kts 132°
2026-04-14 15:51 49.63992 9.37681 16143 ft 372 kts 132°
2026-04-14 15:51 49.62236 9.40518 16401 ft 371 kts 139°
2026-04-14 15:51 49.60177 9.43019 16663 ft 372 kts 147°
2026-04-14 15:52 49.57995 9.45038 16918 ft 371 kts 151°
2026-04-14 15:52 49.55757 9.47036 17178 ft 373 kts 150°
2026-04-14 15:52 49.53519 9.49063 17451 ft 374 kts 150°
2026-04-14 15:52 49.51283 9.51103 17706 ft 375 kts 150°
2026-04-14 15:53 49.49028 9.53161 17966 ft 377 kts 150°
2026-04-14 15:53 49.46769 9.55222 18420 ft 379 kts 150°
2026-04-14 15:53 49.44498 9.57289 18833 ft 380 kts 150°
2026-04-14 15:53 49.42211 9.59369 19219 ft 382 kts 150°
2026-04-14 15:54 49.37608 9.63545 20010 ft 386 kts 150°
2026-04-14 15:54 49.35298 9.65667 20386 ft 389 kts 148°
2026-04-14 15:54 49.33124 9.68159 20781 ft 392 kts 140°
2026-04-14 15:55 49.31159 9.71079 21162 ft 395 kts 136°
2026-04-14 15:55 49.29223 9.74088 21537 ft 398 kts 136°
2026-04-14 15:55 49.27269 9.77096 21932 ft 400 kts 137°
2026-04-14 15:55 49.25297 9.80110 22316 ft 402 kts 137°
2026-04-14 15:56 49.23304 9.83140 22676 ft 405 kts 137°
2026-04-14 15:56 49.21299 9.86186 23085 ft 407 kts 137°
2026-04-14 15:56 49.19283 9.89247 23452 ft 410 kts 137°
2026-04-14 15:56 49.17254 9.92323 23826 ft 412 kts 137°
2026-04-14 15:57 49.15215 9.95410 24171 ft 414 kts 137°
2026-04-14 15:57 49.13165 9.98512 24526 ft 415 kts 137°
2026-04-14 15:57 49.11106 10.01621 24866 ft 417 kts 137°
2026-04-14 15:57 49.09038 10.04740 25205 ft 419 kts 137°
2026-04-14 15:58 49.06960 10.07872 25513 ft 422 kts 137°
2026-04-14 15:58 49.04858 10.11005 25860 ft 423 kts 138°
2026-04-14 15:58 49.02709 10.14067 26217 ft 424 kts 139°
2026-04-14 15:58 49.00532 10.17116 26530 ft 426 kts 139°
2026-04-14 15:59 48.98339 10.20183 26783 ft 429 kts 139°
2026-04-14 15:59 48.96145 10.23265 27145 ft 430 kts 139°
2026-04-14 15:59 48.93943 10.26368 27486 ft 432 kts 139°
2026-04-14 15:59 48.91733 10.29485 27804 ft 434 kts 139°
2026-04-14 16:00 48.89519 10.32609 28135 ft 435 kts 139°
2026-04-14 16:00 48.87295 10.35744 28431 ft 437 kts 139°
2026-04-14 16:00 48.85060 10.38890 28735 ft 439 kts 139°
2026-04-14 16:00 48.82826 10.42050 29021 ft 441 kts 137°
2026-04-14 16:01 48.80701 10.45424 29299 ft 443 kts 134°
2026-04-14 16:01 48.78587 10.48833 29581 ft 445 kts 134°
2026-04-14 16:01 48.76460 10.52249 29838 ft 446 kts 134°
2026-04-14 16:01 48.74324 10.55667 30139 ft 448 kts 134°
2026-04-14 16:02 48.72178 10.59094 30399 ft 450 kts 134°